GW6925 Weather Reports


time (UTC)temp
C
wind
direction
speed
KPH
gust
KPH
rain 1hr
cm
rain 24hr
cm
rain mn
cm
humidity
%
barometer
mb
20260507104526 8 310 0.0 3.2 0.10 0.97 0.64 94 1007.8
20260507104436 9 0 0.0 0.0 0.00 0.00 0.00 88 1008.3
20260507103915 9 0 0.0 1.6 0.00 0.00 0.00 88 1007.9
20260507103333 9 0 0.0 0.0 0.00 0.00 0.00 88 1007.9
20260507103026 8 9 0.0 3.2 0.13 0.97 0.64 94 1007.4
20260507102830 9 0 0.0 0.0 0.00 0.00 0.00 88 1007.9
20260507102315 9 0 0.0 0.0 0.00 0.00 0.00 88 1007.9
20260507101809 9 0 0.0 0.0 0.00 0.00 0.00 88 1007.9
20260507101526 8 9 0.0 0.0 0.13 0.94 0.61 94 1007.4
20260507101252 9 0 0.0 0.0 0.00 0.00 0.00 87 1008.2
20260507100225 9 0 0.0 0.0 0.00 0.00 0.00 88 1008.2
20260507100026 8 9 0.0 1.6 0.13 0.91 0.58 94 1007.8
20260507095134 9 0 0.0 0.0 0.00 0.00 0.00 88 1008.1
20260507094526 8 9 0.0 3.2 0.10 0.86 0.53 93 1007.7
20260507093516 9 0 0.0 3.2 0.00 0.00 0.00 87 1008.0
20260507093036 8 302 0.0 3.2 0.13 0.84 0.51 93 1007.5
20260507093002 9 0 0.0 3.2 0.00 0.00 0.00 88 1008.0
20260507092454 9 0 0.0 3.2 0.00 0.00 0.00 88 1007.7
20260507091953 9 0 0.0 3.2 0.00 0.00 0.00 87 1007.7
20260507091525 9 25 3.2 8.0 0.15 0.81 0.48 93 1007.1
20260507091433 9 0 1.6 6.4 0.00 0.00 0.00 87 1007.7
20260507090905 9 32 1.6 11.3 0.00 0.00 0.00 87 1007.6
20260507090402 10 34 1.6 11.3 0.00 0.00 0.00 88 1007.6
20260507090028 9 325 1.6 4.8 0.18 0.79 0.46 94 1007.1
20260507085839 10 8 1.6 11.3 0.00 0.00 0.00 87 1007.6
20260507085306 10 7 0.0 1.6 0.00 0.00 0.00 87 1007.5
20260507084805 10 7 0.0 3.2 0.00 0.00 0.00 88 1007.5
20260507084521 9 321 0.0 3.2 0.20 0.76 0.43 94 1007.1
20260507084252 10 7 0.0 3.2 0.00 0.00 0.00 87 1007.8
20260507083749 10 7 0.0 3.2 0.00 0.00 0.00 87 1007.8
20260507083233 10 7 0.0 9.7 0.00 0.00 0.00 87 1007.8
20260507083035 9 360 0.0 4.8 0.18 0.71 0.38 93 1007.3
20260507082711 10 7 0.0 9.7 0.00 0.00 0.00 87 1007.7
20260507082208 10 6 0.0 3.2 0.00 0.00 0.00 87 1007.7
20260507081647 10 6 0.0 3.2 0.00 0.00 0.00 87 1007.7
20260507081512 9 336 1.6 3.2 0.25 0.66 0.33 93 1007.2
20260507081147 10 4 0.0 9.7 0.00 0.00 0.00 87 1007.7
20260507080628 10 4 1.6 9.7 0.00 0.00 0.00 86 1007.7
20260507080123 10 0 0.0 9.7 0.00 0.00 0.00 86 1007.7
20260507080015 10 349 0.0 3.2 0.28 0.61 0.28 93 1007.3
20260507075608 10 0 0.0 6.4 0.00 0.00 0.00 87 1008.0
20260507075102 10 0 0.0 0.0 0.00 0.00 0.00 87 1008.0
20260507074556 10 0 0.0 1.6 0.00 0.00 0.00 85 1008.0
20260507074527 10 325 0.0 4.8 0.23 0.56 0.23 92 1007.5
20260507074051 10 0 0.0 1.6 0.00 0.00 0.00 85 1007.9
20260507073035 10 0 0.0 3.2 0.00 0.00 0.00 85 1007.9
20260507073006 10 334 0.0 3.2 0.20 0.53 0.20 91 1007.5
20260507072459 11 0 0.0 3.2 0.00 0.00 0.00 85 1007.6
20260507071923 11 0 0.0 9.7 0.00 0.00 0.00 83 1007.6
20260507071507 10 280 1.6 11.3 0.08 0.41 0.08 89 1007.3
20260507071339 11 0 1.6 9.7 0.00 0.00 0.00 83 1007.6
20260507070834 11 0 1.6 9.7 0.00 0.00 0.00 81 1006.6
20260507070332 11 37 1.6 12.9 0.00 0.00 0.00 82 1006.6
20260507070013 11 26 1.6 8.0 0.00 0.33 0.00 89 1006.3
20260507065831 11 13 1.6 12.9 0.00 0.00 0.00 83 1006.5
20260507065319 12 213 0.0 3.2 0.00 0.00 0.00 85 1006.5
20260507064820 12 30 0.0 3.2 0.00 0.00 0.00 85 1006.5
20260507064519 11 328 0.0 4.8 0.00 0.33 0.00 91 1006.1
20260507064258 12 30 0.0 3.2 0.00 0.00 0.00 84 1007.0
20260507063234 12 30 0.0 9.7 0.00 0.00 0.00 85 1007.0
20260507063027 11 295 1.6 4.8 0.00 0.33 0.00 90 1006.6
20260507062704 12 30 0.0 9.7 0.00 0.00 0.00 85 1007.0
20260507062159 12 17 0.0 3.2 0.00 0.00 0.00 84 1007.0
20260507061643 12 17 0.0 3.2 0.00 0.00 0.00 84 1007.0
20260507061504 11 310 1.6 4.8 0.00 0.33 0.00 90 1006.6
20260507061138 12 17 0.0 3.2 0.00 0.00 0.00 84 1006.9
20260507060635 12 20 0.0 3.2 0.00 0.00 0.00 83 1006.9
20260507060133 12 44 1.6 9.7 0.00 0.00 0.00 83 1006.9
20260507060011 12 289 3.2 6.4 0.00 0.33 0.00 89 1006.6
20260507055540 12 44 1.6 9.7 0.00 0.00 0.00 83 1007.0
20260507054531 12 343 1.6 3.2 0.00 0.00 0.00 85 1007.0
20260507054513 12 342 0.0 9.7 0.00 0.33 0.00 90 1006.7
20260507054011 12 335 1.6 9.7 0.00 0.00 0.00 84 1006.9
20260507053018 12 298 0.0 3.2 0.00 0.33 0.00 91 1006.7
20260507052941 13 298 0.0 6.4 0.00 0.00 0.00 85 1006.9
20260507052355 13 342 0.0 6.4 0.00 0.00 0.00 86 1007.3
20260507051523 13 304 3.2 12.9 0.00 0.33 0.00 92 1007.0
20260507051332 13 320 0.0 6.4 0.00 0.00 0.00 87 1007.0
20260507050259 13 332 0.0 3.2 0.00 0.00 0.00 86 1007.0
20260507050008 13 227 0.0 3.2 0.00 0.33 0.00 92 1006.8
20260507045744 13 332 0.0 3.2 0.00 0.00 0.00 86 1007.2
20260507045235 13 332 0.0 1.6 0.00 0.00 0.00 87 1007.2
20260507044727 13 332 0.0 3.2 0.00 0.00 0.00 86 1007.2
20260507044511 13 305 0.0 3.2 0.03 0.33 0.00 92 1006.9
20260507044211 13 332 0.0 3.2 0.00 0.00 0.00 86 1007.0
20260507043644 13 335 0.0 3.2 0.00 0.00 0.00 86 1007.0
20260507043027 13 346 0.0 4.8 0.03 0.33 0.00 91 1006.7
20260507042132 13 332 0.0 6.4 0.00 0.00 0.00 86 1006.9
20260507041624 13 349 1.6 9.7 0.00 0.00 0.00 86 1006.9
20260507041524 13 285 0.0 8.0 0.03 0.33 0.00 91 1006.8
20260507041119 13 349 1.6 9.7 0.00 0.00 0.00 86 1006.8
20260507040619 14 0 1.6 6.4 0.00 0.00 0.00 86 1006.8
20260507040115 14 6 1.6 9.7 0.00 0.00 0.00 87 1006.8
20260507040025 13 276 1.6 9.7 0.03 0.33 0.00 92 1006.6
20260507035548 14 7 1.6 9.7 0.00 0.00 0.00 87 1006.8
20260507035036 14 356 0.0 9.7 0.00 0.00 0.00 88 1006.8
20260507034529 14 354 1.6 9.7 0.00 0.00 0.00 88 1006.8
20260507034507 14 310 1.6 11.3 0.00 0.30 0.30 93 1006.6
20260507034030 14 357 1.6 9.7 0.00 0.00 0.00 88 1006.8
20260507033516 14 6 1.6 9.7 0.00 0.00 0.00 88 1006.8
20260507033016 14 308 1.6 11.3 0.00 0.30 0.30 93 1006.6
20260507033011 14 20 3.2 14.5 0.00 0.00 0.00 87 1006.8
20260507032511 14 23 4.8 14.5 0.00 0.00 0.00 88 1006.9
20260507031520 14 293 3.2 20.9 0.00 0.30 0.30 93 1006.8
20260507030958 15 0 4.8 16.1 0.00 0.00 0.00 87 1006.7
20260507030434 15 212 4.8 12.9 0.00 0.00 0.00 88 1006.7
20260507030024 14 304 1.6 9.7 0.00 0.30 0.30 93 1006.6
20260507025926 14 343 3.2 12.9 0.00 0.00 0.00 87 1006.7
20260507025414 14 0 1.6 9.7 0.00 0.00 0.00 88 1006.7
20260507024910 14 299 3.2 11.3 0.00 0.00 0.00 88 1006.7
20260507024526 14 214 1.6 6.4 0.00 0.30 0.30 93 1006.6
20260507024408 14 0 4.8 12.9 0.00 0.00 0.00 87 1006.7
20260507023900 14 275 4.8 12.9 0.00 0.00 0.00 87 1006.7
20260507023013 14 321 1.6 11.3 0.00 0.30 0.30 93 1006.6
20260507022852 14 346 4.8 16.1 0.00 0.00 0.00 87 1006.7
20260507022349 14 319 4.8 16.1 0.00 0.00 0.00 87 1006.6
20260507021849 14 246 3.2 12.9 0.00 0.00 0.00 87 1006.6
20260507021521 14 184 1.6 12.9 0.00 0.30 0.30 93 1006.5
20260507021348 14 309 4.8 12.9 0.00 0.00 0.00 87 1006.8
20260507020842 14 254 3.2 12.9 0.00 0.00 0.00 88 1006.8
20260507020340 14 253 3.2 12.9 0.00 0.00 0.00 88 1006.8
20260507020024 14 150 0.0 8.0 0.00 0.30 0.30 93 1006.6
20260507015330 14 260 3.2 12.9 0.00 0.00 0.00 88 1006.6
20260507014828 14 343 1.6 9.7 0.00 0.00 0.00 88 1006.6
20260507014523 14 132 3.2 6.4 0.00 0.30 0.30 93 1006.5
20260507014324 14 295 3.2 11.3 0.00 0.00 0.00 88 1006.7
20260507013814 14 222 3.2 12.9 0.00 0.00 0.00 88 1006.7
20260507013313 14 0 4.8 16.1 0.00 0.00 0.00 88 1006.7
20260507013035 13 286 3.2 16.1 0.00 0.30 0.30 93 1006.6
20260507012810 14 301 4.8 16.1 0.00 0.00 0.00 88 1006.7
20260507012311 14 322 3.2 12.9 0.00 0.00 0.00 88 1006.7
20260507011808 14 346 3.2 16.1 0.00 0.00 0.00 88 1006.7
20260507011532 13 150 4.8 22.5 0.00 0.30 0.30 93 1006.6
20260507011307 14 316 3.2 12.9 0.00 0.00 0.00 88 1007.0
20260507010800 14 329 3.2 12.9 0.00 0.00 0.00 88 1007.0
20260507010300 14 277 3.2 9.7 0.00 0.00 0.00 88 1007.0
20260507010020 13 217 4.8 11.3 0.00 0.30 0.30 93 1006.8
20260507005248 14 306 3.2 12.9 0.00 0.00 0.00 88 1007.1
20260507004745 14 302 3.2 12.9 0.00 0.00 0.00 88 1007.1
20260507004526 13 161 4.8 11.3 0.00 0.30 0.30 93 1006.8
20260507004241 13 306 4.8 12.9 0.00 0.00 0.00 88 1007.2
20260507003739 14 322 4.8 12.9 0.00 0.00 0.00 88 1007.2
20260507003241 13 313 4.8 12.9 0.00 0.00 0.00 88 1007.2
20260507003012 13 250 4.8 12.9 0.00 0.30 0.30 93 1006.9
20260507002741 13 356 6.4 20.9 0.00 0.00 0.00 88 1007.0
20260507002241 13 294 4.8 20.9 0.00 0.00 0.00 88 1007.0
20260507001730 13 320 3.2 14.5 0.00 0.00 0.00 88 1007.0
20260507001516 13 178 1.6 9.7 0.00 0.30 0.30 92 1006.8
20260507001230 14 302 4.8 20.9 0.00 0.00 0.00 87 1007.0
20260507000724 13 272 4.8 20.9 0.00 0.00 0.00 87 1007.0
20260507000226 14 308 4.8 12.9 0.00 0.00 0.00 87 1007.0
20260507000020 13 246 1.6 14.5 0.00 0.30 0.30 92 1006.9
20260506235724 14 251 4.8 16.1 0.00 0.00 0.00 87 1006.8
20260506235220 14 270 6.4 17.7 0.00 0.00 0.00 87 1006.8
20260506234713 14 260 6.4 17.7 0.00 0.00 0.00 87 1006.8
20260506234530 13 221 3.2 16.1 0.00 0.30 0.30 92 1006.7
20260506234158 14 275 3.2 12.9 0.00 0.00 0.00 87 1006.8
20260506233653 14 272 3.2 12.9 0.00 0.00 0.00 87 1006.8
20260506233148 14 274 4.8 16.1 0.00 0.00 0.00 87 1006.8
20260506233012 13 159 3.2 11.3 0.00 0.30 0.30 92 1006.6
20260506232632 14 264 4.8 16.1 0.00 0.00 0.00 87 1006.7
20260506232126 14 325 6.4 16.1 0.00 0.00 0.00 87 1006.7
20260506231510 14 304 3.2 11.3 0.03 0.30 0.30 91 1006.5
20260506231106 14 251 4.8 12.9 0.00 0.00 0.00 86 1006.8
20260506230600 14 176 4.8 14.5 0.00 0.00 0.00 86 1006.8
20260506230055 14 287 4.8 14.5 0.00 0.00 0.00 86 1006.8
20260506230014 14 290 3.2 12.9 0.03 0.30 0.30 91 1006.6
20260506225555 14 227 4.8 16.1 0.00 0.00 0.00 86 1006.7
20260506225052 14 256 6.4 16.1 0.00 0.00 0.00 86 1006.7
20260506224527 14 158 6.4 16.1 0.03 0.30 0.30 91 1006.5
20260506224049 14 319 6.4 17.7 0.00 0.00 0.00 85 1006.7
20260506223544 14 336 6.4 20.9 0.00 0.00 0.00 86 1006.7
20260506223042 15 244 6.4 17.7 0.00 0.00 0.00 87 1006.7
20260506223025 14 282 3.2 12.9 0.05 0.30 0.30 91 1006.6
20260506222540 15 323 3.2 9.7 0.00 0.00 0.00 87 1006.6
20260506222022 15 309 3.2 14.5 0.00 0.00 0.00 87 1006.6
20260506221522 14 311 4.8 14.5 0.00 0.00 0.00 86 1006.6
20260506221508 14 301 1.6 16.1 0.03 0.28 0.28 92 1006.5
20260506220018 15 292 6.4 16.1 0.00 0.00 0.00 87 1006.8
20260506220014 14 167 3.2 11.3 0.05 0.28 0.28 92 1006.6
20260506215510 15 280 8.0 16.1 0.00 0.00 0.00 86 1007.1
20260506214520 14 97 3.2 9.7 0.05 0.28 0.28 92 1006.9
20260506214456 15 268 8.0 24.1 0.00 0.00 0.00 87 1007.1
20260506213952 15 261 8.0 20.9 0.00 0.00 0.00 87 1007.1
20260506213445 15 253 4.8 12.9 0.00 0.00 0.00 86 1007.1
20260506213023 15 153 3.2 12.9 0.03 0.25 0.25 91 1007.0
20260506212939 15 239 4.8 12.9 0.00 0.00 0.00 86 1007.1
20260506212438 15 240 4.8 12.9 0.00 0.00 0.00 85 1007.3
20260506211937 15 257 4.8 12.9 0.00 0.00 0.00 86 1007.3
20260506211523 15 146 0.0 16.1 0.03 0.25 0.25 90 1007.1
20260506211418 15 299 4.8 16.1 0.00 0.00 0.00 85 1007.3
20260506210012 15 184 1.6 14.5 0.00 0.23 0.23 89 1007.4
20260506205350 15 299 6.4 17.7 0.00 0.00 0.00 84 1007.4
20260506204845 15 299 4.8 17.7 0.00 0.00 0.00 84 1007.4
20260506204515 15 159 1.6 8.0 0.03 0.23 0.23 90 1007.2
20260506204338 15 291 3.2 12.9 0.00 0.00 0.00 85 1007.7
20260506203826 15 284 4.8 16.1 0.00 0.00 0.00 84 1007.7
20260506203319 15 274 6.4 16.1 0.00 0.00 0.00 84 1007.7
20260506203023 15 149 4.8 17.7 0.03 0.23 0.23 90 1007.3
20260506202812 15 304 6.4 24.1 0.00 0.00 0.00 85 1007.7
20260506202258 15 326 6.4 24.1 0.00 0.00 0.00 85 1007.7
20260506201753 15 258 6.4 20.9 0.00 0.00 0.00 84 1007.7
20260506201526 15 350 3.2 16.1 0.10 0.23 0.23 90 1007.5
20260506201253 15 304 6.4 27.4 0.00 0.00 0.00 85 1007.9
20260506200752 15 299 6.4 27.4 0.00 0.00 0.00 85 1007.9
20260506200250 15 260 6.4 22.5 0.00 0.00 0.00 85 1007.9
20260506200027 15 285 1.6 12.9 0.13 0.23 0.23 90 1007.6
20260506195746 15 330 4.8 22.5 0.00 0.00 0.00 85 1007.9
20260506195242 15 248 3.2 11.3 0.00 0.00 0.00 85 1007.9
20260506194742 15 261 3.2 12.9 0.00 0.00 0.00 85 1007.9
20260506194513 15 152 1.6 6.4 0.15 0.20 0.20 90 1007.7
20260506193232 15 271 8.0 20.9 0.00 0.00 0.00 83 1007.9
20260506193018 15 140 3.2 19.3 0.20 0.20 0.20 88 1007.8
20260506192732 15 268 6.4 20.9 0.00 0.00 0.00 83 1008.0
20260506192230 15 291 4.8 20.9 0.00 0.00 0.00 82 1008.0
20260506191730 15 288 8.0 20.9 0.00 0.00 0.00 81 1008.0
20260506191523 15 140 4.8 19.3 0.13 0.13 0.13 87 1007.9
20260506191230 15 302 8.0 14.5 0.00 0.00 0.00 81 1008.1
20260506190722 15 264 8.0 14.5 0.00 0.00 0.00 80 1008.1
20260506190218 15 295 4.8 14.5 0.00 0.00 0.00 80 1008.1
20260506190034 15 187 3.2 14.5 0.10 0.10 0.10 86 1007.9
20260506185700 15 336 3.2 12.9 0.00 0.00 0.00 80 1008.4
20260506185159 15 233 3.2 12.9 0.00 0.00 0.00 79 1008.4
20260506184650 15 267 4.8 12.9 0.00 0.00 0.00 78 1008.4
20260506184529 15 236 1.6 14.5 0.05 0.05 0.05 85 1008.2
20260506184145 16 295 6.4 20.9 0.00 0.00 0.00 76 1008.5
20260506183629 16 336 4.8 20.9 0.00 0.00 0.00 73 1008.5
20260506183121 16 328 6.4 17.7 0.00 0.00 0.00 70 1008.5
20260506183016 16 201 4.8 19.3 0.00 0.00 0.00 77 1008.4
20260506182612 16 308 11.3 22.5 0.00 0.00 0.00 69 1008.8
20260506182104 17 332 11.3 27.4 0.00 0.00 0.00 68 1008.8
20260506181603 17 30 11.3 27.4 0.00 0.00 0.00 67 1008.8
20260506181521 17 349 3.2 19.3 0.00 0.00 0.00 74 1008.5
20260506181102 17 280 11.3 25.7 0.00 0.00 0.00 65 1008.7
20260506180559 18 246 11.3 25.7 0.00 0.00 0.00 63 1008.7
20260506180054 18 315 11.3 20.9 0.00 0.00 0.00 62 1008.7
20260506180026 18 304 3.2 12.9 0.00 0.00 0.00 69 1008.6
20260506175553 18 0 11.3 32.2 0.00 0.00 0.00 60 1008.8
20260506175039 18 288 11.3 32.2 0.00 0.00 0.00 60 1008.8
20260506174535 19 326 12.9 24.1 0.00 0.00 0.00 58 1008.8
20260506174527 18 9 8.0 25.7 0.00 0.00 0.00 66 1008.7
20260506174032 19 224 12.9 25.7 0.00 0.00 0.00 59 1008.7
20260506173034 20 177 4.8 22.5 0.00 0.00 0.00 63 1008.6
20260506173031 20 244 11.3 27.4 0.00 0.00 0.00 56 1008.7
20260506172525 20 308 12.9 27.4 0.00 0.00 0.00 55 1008.9
20260506172025 20 241 14.5 32.2 0.00 0.00 0.00 55 1008.9
20260506171520 20 309 6.4 27.4 0.00 0.00 0.00 61 1008.8
20260506171514 20 305 14.5 32.2 0.00 0.00 0.00 54 1008.9
20260506171008 21 325 11.3 25.7 0.00 0.00 0.00 53 1008.8
20260506170503 20 340 9.7 24.1 0.00 0.00 0.00 55 1008.8
20260506170024 20 194 9.7 25.7 0.00 0.00 0.00 62 1008.8
20260506164955 21 179 12.9 25.7 0.00 0.00 0.00 53 1008.8
20260506164524 21 132 12.9 29.0 0.00 0.00 0.00 59 1008.7
20260506164453 21 250 9.7 24.1 0.00 0.00 0.00 53 1008.8
20260506163453 20 299 12.9 24.1 0.00 0.00 0.00 55 1009.0
20260506163042 20 200 4.8 14.5 0.00 0.00 0.00 62 1008.9
20260506162952 20 239 9.7 20.9 0.00 0.00 0.00 55 1009.0
20260506162449 21 237 8.0 22.5 0.00 0.00 0.00 54 1009.3
20260506161516 21 194 6.4 16.1 0.00 0.00 0.00 60 1009.2
20260506161443 21 237 11.3 27.4 0.00 0.00 0.00 53 1009.3
20260506160439 21 263 9.7 24.1 0.00 0.00 0.00 53 1009.4
20260506160023 21 213 6.4 19.3 0.00 0.00 0.00 61 1009.3
20260506155935 21 233 6.4 22.5 0.00 0.00 0.00 53 1009.4
20260506155434 20 316 9.7 27.4 0.00 0.00 0.00 54 1009.7
20260506154534 21 107 12.9 33.8 0.00 0.00 0.00 60 1009.6
20260506154423 21 246 11.3 22.5 0.00 0.00 0.00 53 1009.7
20260506153029 21 154 9.7 22.5 0.00 0.00 0.00 59 1009.6
20260506152855 21 312 9.7 24.1 0.00 0.00 0.00 52 1009.8
20260506152351 21 315 8.0 35.4 0.00 0.00 0.00 53 1009.9
20260506151849 21 248 8.0 35.4 0.00 0.00 0.00 52 1009.9
20260506151537 21 187 6.4 25.7 0.00 0.00 0.00 58 1009.6
20260506151349 21 295 9.7 24.1 0.00 0.00 0.00 54 1009.9
20260506150845 20 335 9.7 20.9 0.00 0.00 0.00 54 1009.9
20260506150346 20 342 8.0 20.9 0.00 0.00 0.00 55 1009.9
20260506150019 21 281 6.4 17.7 0.00 0.00 0.00 63 1009.7
20260506145339 20 267 9.7 16.1 0.00 0.00 0.00 57 1010.1
20260506144834 20 264 9.7 22.5 0.00 0.00 0.00 57 1010.1
20260506144522 20 214 11.3 20.9 0.00 0.00 0.00 64 1009.8
20260506144333 19 304 9.7 22.5 0.00 0.00 0.00 58 1010.2
20260506143833 19 295 9.7 22.5 0.00 0.00 0.00 58 1010.2
20260506143331 19 354 9.7 22.5 0.00 0.00 0.00 57 1010.2
20260506143027 19 178 6.4 22.5 0.00 0.00 0.00 64 1009.9
20260506142829 19 261 8.0 20.9 0.00 0.00 0.00 57 1009.8
20260506142325 19 309 8.0 20.9 0.00 0.00 0.00 58 1009.8
20260506141527 19 190 9.7 25.7 0.00 0.00 0.00 65 1009.6
20260506140819 19 268 9.7 27.4 0.00 0.00 0.00 57 1009.9
20260506140315 20 263 9.7 16.1 0.00 0.00 0.00 57 1009.9
20260506140033 20 189 4.8 16.1 0.00 0.00 0.00 66 1009.6
20260506135813 19 261 11.3 20.9 0.00 0.00 0.00 59 1009.9
20260506135310 19 289 11.3 20.9 0.00 0.00 0.00 58 1009.9
20260506134809 19 224 9.7 20.9 0.00 0.00 0.00 60 1009.9
20260506134524 19 250 4.8 29.0 0.00 0.00 0.00 66 1009.6
20260506134307 19 320 9.7 20.9 0.00 0.00 0.00 59 1010.1
20260506133801 19 258 9.7 20.9 0.00 0.00 0.00 60 1010.1
20260506133255 19 251 11.3 35.4 0.00 0.00 0.00 60 1010.1
20260506133025 19 172 6.4 25.7 0.00 0.00 0.00 67 1009.8
20260506132243 18 281 9.7 20.9 0.00 0.00 0.00 63 1010.5
20260506131741 18 301 11.3 22.5 0.00 0.00 0.00 64 1010.5
20260506131531 18 258 8.0 17.7 0.00 0.00 0.00 70 1010.2
20260506131239 18 277 9.7 22.5 0.00 0.00 0.00 66 1010.5
20260506130233 17 291 8.0 24.1 0.00 0.00 0.00 66 1010.5
20260506130030 17 259 8.0 16.1 0.00 0.00 0.00 73 1010.3
20260506125731 17 268 9.7 24.1 0.00 0.00 0.00 67 1010.5
20260506125232 17 319 8.0 14.5 0.00 0.00 0.00 67 1010.5
20260506124732 17 192 9.7 16.1 0.00 0.00 0.00 68 1010.5
20260506124519 17 271 1.6 20.9 0.00 0.00 0.00 74 1010.2
20260506124229 17 260 8.0 17.7 0.00 0.00 0.00 68 1010.6
20260506123723 17 250 4.8 17.7 0.00 0.00 0.00 69 1010.6
20260506123023 17 65 3.2 11.3 0.00 0.00 0.00 76 1010.2
20260506122717 16 271 9.7 24.1 0.00 0.00 0.00 69 1010.5
20260506122213 16 0 9.7 24.1 0.00 0.00 0.00 69 1010.5
20260506121713 16 260 8.0 20.9 0.00 0.00 0.00 69 1010.5
20260506121508 16 159 9.7 19.3 0.00 0.00 0.00 76 1010.1
20260506120159 16 315 8.0 20.9 0.00 0.00 0.00 72 1010.5
20260506120014 16 138 6.4 19.3 0.00 0.00 0.00 78 1010.1
20260506115641 16 342 8.0 20.9 0.00 0.00 0.00 72 1010.9
20260506115135 16 256 6.4 17.7 0.00 0.00 0.00 72 1010.9
20260506114629 15 323 4.8 12.9 0.00 0.00 0.00 74 1010.9
20260506114519 16 296 4.8 17.7 0.00 0.00 0.00 80 1010.5
20260506114123 15 330 6.4 16.1 0.00 0.00 0.00 74 1010.9
20260506113614 15 253 6.4 16.1 0.00 0.00 0.00 74 1010.9
20260506113109 15 256 4.8 16.1 0.00 0.00 0.00 74 1010.9
20260506113024 15 192 3.2 19.3 0.00 0.00 0.00 81 1010.5
20260506112105 15 287 6.4 20.9 0.00 0.00 0.00 74 1011.0
20260506111603 15 272 4.8 20.9 0.00 0.00 0.00 75 1011.0
20260506111530 15 331 6.4 17.7 0.00 0.00 0.00 81 1010.7
20260506110553 15 285 6.4 20.9 0.00 0.00 0.00 76 1010.9
20260506110051 15 316 6.4 20.9 0.00 0.00 0.00 76 1010.9
20260506110011 15 290 3.2 12.9 0.00 0.00 0.00 82 1010.6
20260506105551 15 278 6.4 17.7 0.00 0.00 0.00 76 1010.8
20260506105045 15 251 6.4 17.7 0.00 0.00 0.00 76 1010.8